,,,PA_Meas_PMT16A,,PR_Meas_QMR101_102,,RH_Meas_QMH101,,SR_Meas_QMS101,,TA_Meas_QMH101,,GenWind,,GenWind,
date,time,status,PA,status,PR,status,RH,status,SR,status,TA,status,DirAvg,status,SpdAvg,
2008-09-30, 00:00:04,VALID,1008.87,VALID,0,VALID,94.4831,VALID,0,VALID,23.5753,VALID,18,VALID,0,
2008-09-30, 00:01:04,VALID,1008.86,VALID,0,VALID,94.4755,VALID,0,VALID,23.5966,VALID,18,VALID,0,
2008-09-30, 00:02:04,VALID,1008.82,VALID,0,VALID,94.445,VALID,0,VALID,23.5771,VALID,18,VALID,0,
2008-09-30, 00:03:04,VALID,1008.8,VALID,0,VALID,94.3916,VALID,0,VALID,23.5381,VALID,18,VALID,0.292578,
2008-09-30, 00:04:04,VALID,1008.83,VALID,0,VALID,94.3534,VALID,0,VALID,23.5186,VALID,18,VALID,0.321094,
2008-09-30, 00:05:04,VALID,1008.83,VALID,0,VALID,94.3306,VALID,0,VALID,23.5399,VALID,18,VALID,0.219531,
2008-09-30, 00:06:04,VALID,1008.84,VALID,0,VALID,94.3382,VALID,0,VALID,23.5009,VALID,18,VALID,0.198437,
2008-09-30, 00:07:04,VALID,1008.85,VALID,0,VALID,94.3687,VALID,0,VALID,23.4584,VALID,18,VALID,0.216016,
2008-09-30, 00:08:04,VALID,1008.82,VALID,0,VALID,94.3458,VALID,0.105969,VALID,23.4389,VALID,18,VALID,0.177734,
2008-09-30, 00:09:04,VALID,1008.86,VALID,0,VALID,94.3916,VALID,0,VALID,23.4194,VALID,18,VALID,0,
2008-09-30, 00:10:04,VALID,1008.86,VALID,0,VALID,94.3992,VALID,0.105969,VALID,23.4194,VALID,18,VALID,0.148828,
2008-09-30, 00:11:04,VALID,1008.86,VALID,0,VALID,94.4297,VALID,0,VALID,23.4194,VALID,18,VALID,0.0222656,
2008-09-30, 00:12:04,VALID,1008.85,VALID,0,VALID,94.4373,VALID,0,VALID,23.4194,VALID,18,VALID,0.141016,
2008-09-30, 00:13:04,VALID,1008.83,VALID,0,VALID,94.4831,VALID,0,VALID,23.4,VALID,18,VALID,0.137891,
2008-09-30, 00:14:04,VALID,1008.83,VALID,0,VALID,94.4907,VALID,0.105969,VALID,23.4,VALID,18,VALID,0.245703,
2008-09-30, 00:15:04,VALID,1008.76,VALID,0,VALID,94.506,VALID,0,VALID,23.3805,VALID,18,VALID,0.158203,
2008-09-30, 00:16:04,VALID,1008.7,VALID,0,VALID,94.506,VALID,0.105969,VALID,23.3805,VALID,18,VALID,0.177344,
2008-09-30, 00:17:04,VALID,1008.7,VALID,0,VALID,94.506,VALID,0,VALID,23.361,VALID,18,VALID,0.155859,
2008-09-30, 00:18:04,VALID,1008.68,VALID,0,VALID,94.5288,VALID,0.105969,VALID,23.3805,VALID,18,VALID,0.192188,
2008-09-30, 00:19:04,VALID,1008.66,VALID,0,VALID,94.5288,VALID,0,VALID,23.3238,VALID,18,VALID,0,
2008-09-30, 00:20:04,VALID,1008.65,VALID,0,VALID,94.5365,VALID,0,VALID,23.3433,VALID,18,VALID,0,
2008-09-30, 00:21:04,VALID,1008.64,VALID,0,VALID,94.5441,VALID,0,VALID,23.3043,VALID,18,VALID,0,
2008-09-30, 00:22:04,VALID,1008.64,VALID,0,VALID,94.567,VALID,0,VALID,23.3026,VALID,18,VALID,0,
2008-09-30, 00:23:04,VALID,1008.6,VALID,0,VALID,94.5822,VALID,0,VALID,23.3238,VALID,18,VALID,0,
2008-09-30, 00:24:04,VALID,1008.62,VALID,0,VALID,94.6127,VALID,0.105969,VALID,23.3026,VALID,18,VALID,0.140234,
2008-09-30, 00:25:04,VALID,1008.59,VALID,0,VALID,94.628,VALID,0,VALID,23.3026,VALID,18,VALID,0.14375,
2008-09-30, 00:26:04,VALID,1008.56,VALID,0,VALID,94.6432,VALID,0.105969,VALID,23.2831,VALID,18,VALID,0.0359375,
2008-09-30, 00:27:04,VALID,1008.55,VALID,0,VALID,94.6356,VALID,0.105969,VALID,23.2636,VALID,18,VALID,0,
2008-09-30, 00:28:04,VALID,1008.53,VALID,0,VALID,94.6508,VALID,0,VALID,23.2636,VALID,18,VALID,0,
2008-09-30, 00:29:04,VALID,1008.51,VALID,0,VALID,94.6737,VALID,0,VALID,23.2636,VALID,18,VALID,0,
2008-09-30, 00:30:04,VALID,1008.49,VALID,0,VALID,94.6585,VALID,0,VALID,23.2441,VALID,18,VALID,0,
2008-09-30, 00:31:04,VALID,1008.49,VALID,0,VALID,94.6814,VALID,0,VALID,23.2229,VALID,18,VALID,0,
2008-09-30, 00:32:04,VALID,1008.47,VALID,0,VALID,94.6966,VALID,0.105969,VALID,23.2441,VALID,18,VALID,0,
2008-09-30, 00:33:04,VALID,1008.46,VALID,0,VALID,94.7042,VALID,0,VALID,23.2441,VALID,18,VALID,0.0328125,
2008-09-30, 00:34:04,VALID,1008.45,VALID,0,VALID,94.7347,VALID,0.105969,VALID,23.2441,VALID,18,VALID,0.0304688,
2008-09-30, 00:35:04,VALID,1008.47,VALID,0,VALID,94.7424,VALID,0.105969,VALID,23.2459,VALID,18,VALID,0,
2008-09-30, 00:36:04,VALID,1008.47,VALID,0,VALID,94.7729,VALID,0.105969,VALID,23.2246,VALID,18,VALID,0,
2008-09-30, 00:37:04,VALID,1008.48,VALID,0,VALID,94.7729,VALID,0,VALID,23.2246,VALID,18,VALID,0,
2008-09-30, 00:38:04,VALID,1008.46,VALID,0,VALID,94.8034,VALID,0.105969,VALID,23.2246,VALID,18,VALID,0,
2008-09-30, 00:39:04,VALID,1008.42,VALID,0,VALID,94.8186,VALID,0,VALID,23.2246,VALID,18,VALID,0,
2008-09-30, 00:40:04,VALID,1008.42,VALID,0,VALID,94.8186,VALID,0.105969,VALID,23.2246,VALID,18,VALID,0,
2008-09-30, 00:41:04,VALID,1008.41,VALID,0,VALID,94.8415,VALID,0,VALID,23.2246,VALID,18,VALID,0.149219,
2008-09-30, 00:42:04,VALID,1008.37,VALID,0,VALID,94.8949,VALID,0.105969,VALID,23.2246,VALID,18,VALID,0.0574219,
2008-09-30, 00:43:04,VALID,1008.36,VALID,0,VALID,94.9025,VALID,0,VALID,23.2246,VALID,18,VALID,0.272266,
2008-09-30, 00:44:04,VALID,1008.37,VALID,0,VALID,94.9254,VALID,0.105969,VALID,23.2441,VALID,18,VALID,0.252734,
2008-09-30, 00:45:04,VALID,1008.36,VALID,0,VALID,94.9101,VALID,0.105969,VALID,23.2246,VALID,18,VALID,0.110547,
2008-09-30, 00:46:04,VALID,1008.34,VALID,0,VALID,94.9101,VALID,0.105969,VALID,23.2051,VALID,18,VALID,0.0972656,
2008-09-30, 00:47:04,VALID,1008.33,VALID,0,VALID,94.9101,VALID,0.105969,VALID,23.1857,VALID,18,VALID,0,
2008-09-30, 00:48:04,VALID,1008.34,VALID,0,VALID,94.8949,VALID,0,VALID,23.1857,VALID,18,VALID,0.0109375,
2008-09-30, 00:49:04,VALID,1008.33,VALID,0,VALID,94.9101,VALID,0.105969,VALID,23.1662,VALID,18,VALID,0.0496094,
2008-09-30, 00:50:04,VALID,1008.33,VALID,0,VALID,94.8873,VALID,0,VALID,23.1467,VALID,18,VALID,0,
2008-09-30, 00:51:04,VALID,1008.31,VALID,0,VALID,94.8949,VALID,0.105969,VALID,23.1467,VALID,18,VALID,0,
2008-09-30, 00:52:04,VALID,1008.28,VALID,0,VALID,94.9254,VALID,0,VALID,23.1485,VALID,18,VALID,0,
2008-09-30, 00:53:04,VALID,1008.28,VALID,0,VALID,94.9254,VALID,0,VALID,23.129,VALID,18,VALID,0,
2008-09-30, 00:54:04,VALID,1008.26,VALID,0,VALID,94.9483,VALID,0,VALID,23.1272,VALID,18,VALID,0,
2008-09-30, 00:55:04,VALID,1008.23,VALID,0,VALID,94.9635,VALID,0,VALID,23.129,VALID,18,VALID,0,
2008-09-30, 00:56:04,VALID,1008.2,VALID,0,VALID,94.9711,VALID,0,VALID,23.1485,VALID,18,VALID,0,
2008-09-30, 00:57:04,VALID,1008.19,VALID,0,VALID,94.994,VALID,0,VALID,23.1485,VALID,18,VALID,0,
2008-09-30, 00:58:04,VALID,1008.14,VALID,0,VALID,95.0093,VALID,0,VALID,23.1485,VALID,18,VALID,0,
2008-09-30, 00:59:04,VALID,1008.14,VALID,0,VALID,95.0169,VALID,0,VALID,23.1272,VALID,18,VALID,0,
2008-09-30, 01:00:04,VALID,1008.16,VALID,0,VALID,95.0321,VALID,0,VALID,23.1272,VALID,18,VALID,0,
2008-09-30, 01:01:04,VALID,1008.11,VALID,0,VALID,95.055,VALID,0,VALID,23.1679,VALID,18,VALID,0,
2008-09-30, 01:02:04,VALID,1008.11,VALID,0,VALID,95.055,VALID,0,VALID,23.1485,VALID,18,VALID,0,
2008-09-30, 01:03:04,VALID,1008.11,VALID,0,VALID,95.055,VALID,0,VALID,23.1485,VALID,18,VALID,0,
2008-09-30, 01:04:04,VALID,1008.12,VALID,0,VALID,95.0779,VALID,0,VALID,23.1485,VALID,18,VALID,0,
2008-09-30, 01:05:04,VALID,1008.12,VALID,0,VALID,95.1008,VALID,0,VALID,23.1679,VALID,18,VALID,0.145313,
2008-09-30, 01:06:04,VALID,1008.12,VALID,0,VALID,95.0626,VALID,0.105969,VALID,23.1679,VALID,18,VALID,0.257813,
2008-09-30, 01:07:04,VALID,1008.12,VALID,0,VALID,95.0703,VALID,0,VALID,23.1272,VALID,18,VALID,0.392969,
2008-09-30, 01:08:04,VALID,1008.13,VALID,0,VALID,95.0626,VALID,0,VALID,23.1485,VALID,18,VALID,0.392578,
2008-09-30, 01:09:04,VALID,1008.15,VALID,0,VALID,95.0703,VALID,0,VALID,23.1077,VALID,18,VALID,0.301172,
2008-09-30, 01:10:04,VALID,1008.13,VALID,0,VALID,95.0779,VALID,0,VALID,23.129,VALID,18,VALID,0.105078,
2008-09-30, 01:11:04,VALID,1008.11,VALID,0,VALID,95.0626,VALID,0,VALID,23.1095,VALID,18,VALID,0.1375,
2008-09-30, 01:12:04,VALID,1008.11,VALID,0,VALID,95.0703,VALID,0,VALID,23.09,VALID,18,VALID,0.191797,
2008-09-30, 01:13:04,VALID,1008.1,VALID,0,VALID,95.0931,VALID,0,VALID,23.0883,VALID,18,VALID,0.357031,
2008-09-30, 01:14:04,VALID,1008.12,VALID,0,VALID,95.0931,VALID,0,VALID,23.0688,VALID,18,VALID,0.187891,
2008-09-30, 01:15:04,VALID,1008.12,VALID,0,VALID,95.0931,VALID,0,VALID,23.09,VALID,18,VALID,0.0660156,
2008-09-30, 01:16:04,VALID,1008.13,VALID,0,VALID,95.0855,VALID,0,VALID,23.0511,VALID,18,VALID,0.170312,
2008-09-30, 01:17:04,VALID,1008.15,VALID,0,VALID,95.0931,VALID,0,VALID,23.0298,VALID,18,VALID,0.135547,
2008-09-30, 01:18:04,VALID,1008.15,VALID,0,VALID,95.0855,VALID,0,VALID,23.0298,VALID,18,VALID,0,
2008-09-30, 01:19:04,VALID,1008.16,VALID,0,VALID,95.0855,VALID,0,VALID,23.0316,VALID,18,VALID,0.191016,
2008-09-30, 01:20:04,VALID,1008.17,VALID,0,VALID,95.0855,VALID,0,VALID,23.0316,VALID,18,VALID,0.0277344,
2008-09-30, 01:21:04,VALID,1008.2,VALID,0,VALID,95.0855,VALID,0,VALID,23.0121,VALID,18,VALID,0.263672,
2008-09-30, 01:22:04,VALID,1008.18,VALID,0,VALID,95.1008,VALID,0,VALID,23.0121,VALID,10,VALID,0.360938,
2008-09-30, 01:23:04,VALID,1008.19,VALID,0,VALID,95.1236,VALID,0,VALID,23.0121,VALID,348,VALID,0.152344,
2008-09-30, 01:24:04,VALID,1008.2,VALID,0,VALID,95.1313,VALID,0,VALID,23.0103,VALID,348,VALID,0.137891,
2008-09-30, 01:25:04,VALID,1008.22,VALID,0,VALID,95.1465,VALID,0,VALID,22.9909,VALID,348,VALID,0,
2008-09-30, 01:26:04,VALID,1008.24,VALID,0,VALID,95.1465,VALID,0,VALID,23.0103,VALID,348,VALID,0.0464844,
2008-09-30, 01:27:04,VALID,1008.23,VALID,0,VALID,95.1542,VALID,0,VALID,22.9909,VALID,348,VALID,0,
2008-09-30, 01:28:04,VALID,1008.24,VALID,0,VALID,95.1694,VALID,0,VALID,23.0316,VALID,348,VALID,0.204297,
2008-09-30, 01:29:04,VALID,1008.23,VALID,0,VALID,95.1923,VALID,0,VALID,23.0511,VALID,348,VALID,0,
2008-09-30, 01:30:04,VALID,1008.24,VALID,0,VALID,95.1999,VALID,0,VALID,23.0511,VALID,348,VALID,0,
2008-09-30, 01:31:04,VALID,1008.24,VALID,0,VALID,95.1847,VALID,0,VALID,23.0316,VALID,348,VALID,0,
2008-09-30, 01:32:04,VALID,1008.23,VALID,0,VALID,95.1999,VALID,0,VALID,23.0511,VALID,348,VALID,0,
2008-09-30, 01:33:04,VALID,1008.21,VALID,0,VALID,95.1999,VALID,0,VALID,23.0103,VALID,348,VALID,0,
2008-09-30, 01:34:04,VALID,1008.21,VALID,0,VALID,95.1999,VALID,0,VALID,23.0316,VALID,348,VALID,0.204688,
2008-09-30, 01:35:04,VALID,1008.22,VALID,0,VALID,95.177,VALID,0,VALID,23.0121,VALID,348,VALID,0.231641,
2008-09-30, 01:36:04,VALID,1008.24,VALID,0,VALID,95.177,VALID,0,VALID,23.0121,VALID,348,VALID,0.2375,
2008-09-30, 01:37:04,VALID,1008.26,VALID,0,VALID,95.1923,VALID,0,VALID,23.0316,VALID,348,VALID,0.206641,
2008-09-30, 01:38:04,VALID,1008.26,VALID,0,VALID,95.1999,VALID,0,VALID,23.0103,VALID,355,VALID,0.424609,
2008-09-30, 01:39:04,VALID,1008.32,VALID,0,VALID,95.1923,VALID,0,VALID,23.0316,VALID,19,VALID,0.424609,
2008-09-30, 01:40:04,VALID,1008.34,VALID,0,VALID,95.2075,VALID,0,VALID,23.0103,VALID,19,VALID,0.567969,
2008-09-30, 01:41:04,VALID,1008.32,VALID,0,VALID,95.1923,VALID,0,VALID,23.0511,VALID,21,VALID,0.541406,
2008-09-30, 01:42:04,VALID,1008.31,VALID,0,VALID,95.1999,VALID,0,VALID,23.0316,VALID,12,VALID,0.589844,
2008-09-30, 01:43:04,VALID,1008.36,VALID,0,VALID,95.1847,VALID,0,VALID,23.0103,VALID,16,VALID,0.413672,
2008-09-30, 01:44:04,VALID,1008.38,VALID,0,VALID,95.1847,VALID,0,VALID,23.0316,VALID,16,VALID,0.241797,
2008-09-30, 01:45:04,VALID,1008.37,VALID,0,VALID,95.1694,VALID,0,VALID,23.0121,VALID,16,VALID,0.138672,
2008-09-30, 01:46:04,VALID,1008.38,VALID,0,VALID,95.1847,VALID,0,VALID,23.0103,VALID,16,VALID,0.302344,
2008-09-30, 01:47:04,VALID,1008.35,VALID,0,VALID,95.1694,VALID,0,VALID,23.0121,VALID,16,VALID,0.0945313,
2008-09-30, 01:48:04,VALID,1008.34,VALID,0,VALID,95.1999,VALID,0,VALID,22.9714,VALID,16,VALID,0.301953,
2008-09-30, 01:49:04,VALID,1008.33,VALID,0,VALID,95.1694,VALID,0,VALID,22.9519,VALID,16,VALID,0.0554687,
2008-09-30, 01:50:04,VALID,1008.34,VALID,0,VALID,95.177,VALID,0,VALID,22.9731,VALID,16,VALID,0.162109,
2008-09-30, 01:51:04,VALID,1008.31,VALID,0,VALID,95.1923,VALID,0,VALID,22.9536,VALID,16,VALID,0,
2008-09-30, 01:52:04,VALID,1008.33,VALID,0,VALID,95.1999,VALID,0.105969,VALID,22.9519,VALID,16,VALID,0.162891,
2008-09-30, 01:53:04,VALID,1008.32,VALID,0,VALID,95.1923,VALID,0,VALID,22.9731,VALID,16,VALID,0.195313,
2008-09-30, 01:54:04,VALID,1008.35,VALID,0,VALID,95.2228,VALID,0,VALID,22.9731,VALID,16,VALID,0.334375,
2008-09-30, 01:55:04,VALID,1008.34,VALID,0,VALID,95.2304,VALID,0,VALID,23.0121,VALID,16,VALID,0.336719,
2008-09-30, 01:56:04,VALID,1008.33,VALID,0,VALID,95.238,VALID,0,VALID,22.9926,VALID,16,VALID,0.180078,
2008-09-30, 01:57:04,VALID,1008.33,VALID,0,VALID,95.238,VALID,0,VALID,22.9731,VALID,16,VALID,0.0769531,
2008-09-30, 01:58:04,VALID,1008.32,VALID,0,VALID,95.2075,VALID,0,VALID,22.9519,VALID,16,VALID,0.151172,
2008-09-30, 01:59:04,VALID,1008.33,VALID,0,VALID,95.2304,VALID,0,VALID,22.9536,VALID,16,VALID,0.194141,
2008-09-30, 02:00:04,VALID,1008.33,VALID,0,VALID,95.2075,VALID,0,VALID,22.9324,VALID,16,VALID,0.260938,
2008-09-30, 02:01:04,VALID,1008.31,VALID,0,VALID,95.2304,VALID,0,VALID,22.9324,VALID,20,VALID,0.0992187,
2008-09-30, 02:02:04,VALID,1008.3,VALID,0,VALID,95.2457,VALID,0,VALID,22.9536,VALID,32,VALID,0.173047,
2008-09-30, 02:03:04,VALID,1008.29,VALID,0,VALID,95.238,VALID,0,VALID,22.9536,VALID,32,VALID,0.176172,
2008-09-30, 02:04:04,VALID,1008.27,VALID,0,VALID,95.238,VALID,0.105969,VALID,22.9519,VALID,32,VALID,0.203516,
2008-09-30, 02:05:04,VALID,1008.29,VALID,0,VALID,95.2685,VALID,0,VALID,22.9536,VALID,32,VALID,0.244922,
2008-09-30, 02:06:04,VALID,1008.29,VALID,0,VALID,95.2533,VALID,0,VALID,22.9324,VALID,32,VALID,0.0910156,
2008-09-30, 02:07:04,VALID,1008.3,VALID,0,VALID,95.2533,VALID,0,VALID,22.9324,VALID,32,VALID,0.0105469,
2008-09-30, 02:08:04,VALID,1008.29,VALID,0,VALID,95.2457,VALID,0.105969,VALID,22.9342,VALID,32,VALID,0,
2008-09-30, 02:09:04,VALID,1008.3,VALID,0,VALID,95.2457,VALID,0,VALID,22.9342,VALID,32,VALID,0,
2008-09-30, 02:10:04,VALID,1008.29,VALID,0,VALID,95.2685,VALID,0,VALID,22.9129,VALID,32,VALID,0,
2008-09-30, 02:11:04,VALID,1008.31,VALID,0,VALID,95.299,VALID,0.105969,VALID,22.9324,VALID,23,VALID,0.144922,
2008-09-30, 02:12:04,VALID,1008.3,VALID,0,VALID,95.2914,VALID,0,VALID,22.9536,VALID,22,VALID,0,
2008-09-30, 02:13:04,VALID,1008.31,VALID,0,VALID,95.2762,VALID,0,VALID,22.9536,VALID,22,VALID,0,
2008-09-30, 02:14:04,VALID,1008.29,VALID,0,VALID,95.2533,VALID,0,VALID,22.9324,VALID,22,VALID,0.552734,
2008-09-30, 02:15:04,VALID,1008.26,VALID,0,VALID,95.2762,VALID,0,VALID,22.8935,VALID,22,VALID,0.344141,
2008-09-30, 02:16:04,VALID,1008.28,VALID,0,VALID,95.2609,VALID,0.105969,VALID,22.874,VALID,22,VALID,0.258984,
2008-09-30, 02:17:04,VALID,1008.25,VALID,0,VALID,95.2457,VALID,0,VALID,22.8757,VALID,22,VALID,0,
2008-09-30, 02:18:04,VALID,1008.23,VALID,0,VALID,95.2762,VALID,0.105969,VALID,22.8757,VALID,22,VALID,0.0328125,
2008-09-30, 02:19:04,VALID,1008.23,VALID,0,VALID,95.2685,VALID,0,VALID,22.8545,VALID,22,VALID,0,
2008-09-30, 02:20:04,VALID,1008.27,VALID,0,VALID,95.2914,VALID,0.105969,VALID,22.8757,VALID,22,VALID,0.121484,
2008-09-30, 02:21:04,VALID,1008.24,VALID,0,VALID,95.299,VALID,0.105969,VALID,22.8545,VALID,22,VALID,0.00273437,
2008-09-30, 02:22:04,VALID,1008.23,VALID,0,VALID,95.3372,VALID,0.105969,VALID,22.8935,VALID,342,VALID,0.567578,
2008-09-30, 02:23:04,VALID,1008.26,VALID,0,VALID,95.3524,VALID,0,VALID,22.9129,VALID,335,VALID,0.216406,
2008-09-30, 02:24:04,VALID,1008.24,VALID,0,VALID,95.36,VALID,0.105969,VALID,22.9342,VALID,336,VALID,0.20625,
2008-09-30, 02:25:04,VALID,1008.25,VALID,0,VALID,95.36,VALID,0,VALID,22.9342,VALID,45,VALID,0.282422,
2008-09-30, 02:26:04,VALID,1008.22,VALID,0,VALID,95.3753,VALID,0,VALID,22.9536,VALID,45,VALID,0.3,
2008-09-30, 02:27:04,VALID,1008.26,VALID,0,VALID,95.3677,VALID,0,VALID,22.9342,VALID,45,VALID,0.183984,
2008-09-30, 02:28:04,VALID,1008.24,VALID,0,VALID,95.3448,VALID,0.105969,VALID,22.9129,VALID,45,VALID,0.0140625,
2008-09-30, 02:29:04,VALID,1008.19,VALID,0,VALID,95.36,VALID,0,VALID,22.8935,VALID,45,VALID,0.00078125,
2008-09-30, 02:30:04,VALID,1008.19,VALID,0,VALID,95.3448,VALID,0,VALID,22.9129,VALID,45,VALID,0.322656,
2008-09-30, 02:31:04,VALID,1008.19,VALID,0,VALID,95.3219,VALID,0.105969,VALID,22.9129,VALID,45,VALID,0.308203,
2008-09-30, 02:32:04,VALID,1008.18,VALID,0,VALID,95.3219,VALID,0.105969,VALID,22.8935,VALID,45,VALID,0.223047,
2008-09-30, 02:33:04,VALID,1008.17,VALID,0,VALID,95.3143,VALID,0,VALID,22.8952,VALID,45,VALID,0.187891,
2008-09-30, 02:34:04,VALID,1008.2,VALID,0,VALID,95.3295,VALID,0,VALID,22.8757,VALID,45,VALID,0,
2008-09-30, 02:35:04,VALID,1008.18,VALID,0,VALID,95.3219,VALID,0,VALID,22.8952,VALID,45,VALID,0,
2008-09-30, 02:36:04,VALID,1008.2,VALID,0,VALID,95.3295,VALID,0,VALID,22.8545,VALID,45,VALID,0.0859375,
2008-09-30, 02:37:04,VALID,1008.21,VALID,0,VALID,95.3143,VALID,0,VALID,22.8757,VALID,45,VALID,0.260156,
2008-09-30, 02:38:04,VALID,1008.18,VALID,0,VALID,95.3219,VALID,0,VALID,22.8757,VALID,45,VALID,0.108984,
2008-09-30, 02:39:04,VALID,1008.2,VALID,0,VALID,95.3219,VALID,0,VALID,22.8545,VALID,45,VALID,0.140625,
2008-09-30, 02:40:04,VALID,1008.19,VALID,0,VALID,95.3448,VALID,0,VALID,22.8757,VALID,131,VALID,0.328906,
2008-09-30, 02:41:04,VALID,1008.14,VALID,0,VALID,95.3524,VALID,0,VALID,22.8952,VALID,123,VALID,0.411719,
2008-09-30, 02:42:04,VALID,1008.14,VALID,0,VALID,95.3753,VALID,0,VALID,22.9129,VALID,79,VALID,0.795313,
2008-09-30, 02:43:04,VALID,1008.11,VALID,0,VALID,95.3905,VALID,0.105969,VALID,22.9324,VALID,37,VALID,0.891406,
2008-09-30, 02:44:04,VALID,1008.11,VALID,0,VALID,95.3753,VALID,0,VALID,22.9324,VALID,24,VALID,0.239063,
2008-09-30, 02:45:04,VALID,1008.07,VALID,0,VALID,95.3982,VALID,0,VALID,22.9129,VALID,24,VALID,0,
2008-09-30, 02:46:04,VALID,1008.04,VALID,0,VALID,95.3829,VALID,0,VALID,22.9324,VALID,23,VALID,0.396484,
2008-09-30, 02:47:04,VALID,1008.06,VALID,0,VALID,95.3677,VALID,0,VALID,22.9324,VALID,23,VALID,0.288672,
2008-09-30, 02:48:04,VALID,1008.08,VALID,0,VALID,95.3524,VALID,0,VALID,22.9536,VALID,23,VALID,0.0523437,
2008-09-30, 02:49:04,VALID,1008.08,VALID,0,VALID,95.3372,VALID,0.105969,VALID,22.9342,VALID,23,VALID,0.136328,
2008-09-30, 02:50:04,VALID,1008.07,VALID,0,VALID,95.3219,VALID,0.105969,VALID,22.9342,VALID,23,VALID,0.0515625,
2008-09-30, 02:51:04,VALID,1008.06,VALID,0,VALID,95.3295,VALID,0,VALID,22.874,VALID,23,VALID,0.329297,
2008-09-30, 02:52:04,VALID,1008.05,VALID,0,VALID,95.2914,VALID,0,VALID,22.8952,VALID,23,VALID,0.395312,
2008-09-30, 02:53:04,VALID,1008.04,VALID,0,VALID,95.2762,VALID,0,VALID,22.8935,VALID,23,VALID,0,
2008-09-30, 02:54:04,VALID,1008.04,VALID,0,VALID,95.2533,VALID,0,VALID,22.8562,VALID,23,VALID,0.0246094,
2008-09-30, 02:55:04,VALID,1008.02,VALID,0,VALID,95.2609,VALID,0,VALID,22.8562,VALID,23,VALID,0,
2008-09-30, 02:56:04,VALID,1008.02,VALID,0,VALID,95.2762,VALID,0,VALID,22.8545,VALID,23,VALID,0,
2008-09-30, 02:57:04,VALID,1008.01,VALID,0,VALID,95.299,VALID,0,VALID,22.8757,VALID,61,VALID,0.398438,
2008-09-30, 02:58:04,VALID,1008,VALID,0,VALID,95.3143,VALID,0,VALID,22.8952,VALID,62,VALID,0.142969,
2008-09-30, 02:59:04,VALID,1007.99,VALID,0,VALID,95.3067,VALID,0,VALID,22.8757,VALID,62,VALID,0.367578,
2008-09-30, 03:00:04,VALID,1007.97,VALID,0,VALID,95.3067,VALID,0,VALID,22.8935,VALID,62,VALID,0.247656,
2008-09-30, 03:01:04,VALID,1007.94,VALID,0,VALID,95.2914,VALID,0,VALID,22.874,VALID,28,VALID,0.384375,
2008-09-30, 03:02:04,VALID,1007.93,VALID,0,VALID,95.299,VALID,0,VALID,22.8952,VALID,23,VALID,0,
2008-09-30, 03:03:04,VALID,1007.96,VALID,0,VALID,95.3143,VALID,0,VALID,22.9129,VALID,140,VALID,0.455078,
2008-09-30, 03:04:04,VALID,1007.98,VALID,0,VALID,95.3372,VALID,0,VALID,22.9129,VALID,140,VALID,0,
2008-09-30, 03:05:04,VALID,1008,VALID,0,VALID,95.3219,VALID,0,VALID,22.9342,VALID,140,VALID,0.03125,
2008-09-30, 03:06:04,VALID,1008.05,VALID,0,VALID,95.3143,VALID,0,VALID,22.8935,VALID,140,VALID,0,
2008-09-30, 03:07:04,VALID,1008.03,VALID,0,VALID,95.3295,VALID,0,VALID,22.8935,VALID,140,VALID,0,
2008-09-30, 03:08:04,VALID,1008.06,VALID,0,VALID,95.3295,VALID,0,VALID,22.9129,VALID,140,VALID,0,
2008-09-30, 03:09:04,VALID,1008.02,VALID,0,VALID,95.3295,VALID,0,VALID,22.9342,VALID,140,VALID,0,
2008-09-30, 03:10:04,VALID,1008.03,VALID,0,VALID,95.3219,VALID,0,VALID,22.9324,VALID,140,VALID,0,
2008-09-30, 03:11:04,VALID,1008,VALID,0,VALID,95.3448,VALID,0,VALID,22.9324,VALID,140,VALID,0,
2008-09-30, 03:12:04,VALID,1008,VALID,0,VALID,95.3372,VALID,0,VALID,22.9129,VALID,140,VALID,0,
2008-09-30, 03:13:04,VALID,1008,VALID,0,VALID,95.3219,VALID,0,VALID,22.8935,VALID,140,VALID,0,
2008-09-30, 03:14:04,VALID,1007.98,VALID,0,VALID,95.2914,VALID,0.105969,VALID,22.9536,VALID,140,VALID,0,
2008-09-30, 03:15:04,VALID,1007.98,VALID,0,VALID,95.299,VALID,0,VALID,22.8757,VALID,140,VALID,0,
2008-09-30, 03:16:04,VALID,1008,VALID,0,VALID,95.2685,VALID,0,VALID,22.8545,VALID,140,VALID,0,
2008-09-30, 03:17:04,VALID,1007.98,VALID,0,VALID,95.2762,VALID,0,VALID,22.874,VALID,140,VALID,0,
2008-09-30, 03:18:04,VALID,1008.02,VALID,0,VALID,95.2457,VALID,0,VALID,22.874,VALID,140,VALID,0,
2008-09-30, 03:19:04,VALID,1008,VALID,0,VALID,95.2685,VALID,0,VALID,22.8952,VALID,140,VALID,0,
2008-09-30, 03:20:04,VALID,1008.01,VALID,0,VALID,95.2533,VALID,0,VALID,22.8545,VALID,140,VALID,0,
2008-09-30, 03:21:04,VALID,1008.03,VALID,0,VALID,95.2533,VALID,0,VALID,22.8757,VALID,140,VALID,0,
2008-09-30, 03:22:04,VALID,1008.05,VALID,0,VALID,95.238,VALID,0,VALID,22.8562,VALID,140,VALID,0,
2008-09-30, 03:23:04,VALID,1008.05,VALID,0,VALID,95.2152,VALID,0,VALID,22.835,VALID,140,VALID,0,
2008-09-30, 03:24:04,VALID,1008.05,VALID,0,VALID,95.238,VALID,0,VALID,22.8757,VALID,140,VALID,0.197266,
2008-09-30, 03:25:04,VALID,1008.06,VALID,0,VALID,95.2228,VALID,0,VALID,22.874,VALID,140,VALID,0.102734,
2008-09-30, 03:26:04,VALID,1008.06,VALID,0,VALID,95.2075,VALID,0,VALID,22.835,VALID,140,VALID,0,
2008-09-30, 03:27:04,VALID,1008.07,VALID,0,VALID,95.2228,VALID,0,VALID,22.835,VALID,140,VALID,0,
2008-09-30, 03:28:04,VALID,1008.08,VALID,0,VALID,95.238,VALID,0,VALID,22.8562,VALID,140,VALID,0.0324219,
2008-09-30, 03:29:04,VALID,1008.1,VALID,0,VALID,95.238,VALID,0,VALID,22.8545,VALID,140,VALID,0.138672,
2008-09-30, 03:30:04,VALID,1008.11,VALID,0,VALID,95.2304,VALID,0.105969,VALID,22.8757,VALID,140,VALID,0.145703,
2008-09-30, 03:31:04,VALID,1008.12,VALID,0,VALID,95.2304,VALID,0,VALID,22.835,VALID,140,VALID,0.310937,
2008-09-30, 03:32:04,VALID,1008.16,VALID,0,VALID,95.2075,VALID,0,VALID,22.835,VALID,140,VALID,0.177344,
2008-09-30, 03:33:04,VALID,1008.17,VALID,0,VALID,95.1999,VALID,0,VALID,22.8368,VALID,140,VALID,0.299219,
2008-09-30, 03:34:04,VALID,1008.18,VALID,0,VALID,95.177,VALID,0,VALID,22.8173,VALID,140,VALID,0.271484,
2008-09-30, 03:35:04,VALID,1008.19,VALID,0,VALID,95.2152,VALID,0,VALID,22.8173,VALID,97,VALID,0.411328,
2008-09-30, 03:36:04,VALID,1008.17,VALID,0,VALID,95.1542,VALID,0,VALID,22.7571,VALID,63,VALID,0.490234,
2008-09-30, 03:37:04,VALID,1008.17,VALID,0,VALID,95.1694,VALID,0,VALID,22.7588,VALID,63,VALID,0.360547,
2008-09-30, 03:38:04,VALID,1008.18,VALID,0,VALID,95.1999,VALID,0,VALID,22.7571,VALID,63,VALID,0.286719,
2008-09-30, 03:39:04,VALID,1008.19,VALID,0,VALID,95.2304,VALID,0,VALID,22.7783,VALID,63,VALID,0.292188,
2008-09-30, 03:40:04,VALID,1008.23,VALID,0,VALID,95.1847,VALID,0,VALID,22.7588,VALID,63,VALID,0.268359,
2008-09-30, 03:41:04,VALID,1008.21,VALID,0,VALID,95.1694,VALID,0,VALID,22.7394,VALID,63,VALID,0.246094,
2008-09-30, 03:42:04,VALID,1008.24,VALID,0,VALID,95.1847,VALID,0,VALID,22.7199,VALID,63,VALID,0.0105469,
2008-09-30, 03:43:04,VALID,1008.24,VALID,0,VALID,95.1847,VALID,0,VALID,22.6792,VALID,63,VALID,0,
2008-09-30, 03:44:04,VALID,1008.25,VALID,0,VALID,95.1999,VALID,0,VALID,22.6987,VALID,63,VALID,0.109375,
2008-09-30, 03:45:04,VALID,1008.25,VALID,0,VALID,95.1923,VALID,0,VALID,22.6792,VALID,63,VALID,0.119141,
2008-09-30, 03:46:04,VALID,1008.27,VALID,0,VALID,95.2075,VALID,0,VALID,22.7004,VALID,63,VALID,0,
2008-09-30, 03:47:04,VALID,1008.26,VALID,0,VALID,95.2304,VALID,0,VALID,22.7004,VALID,63,VALID,0,
2008-09-30, 03:48:04,VALID,1008.24,VALID,0,VALID,95.238,VALID,0,VALID,22.7199,VALID,63,VALID,0,
2008-09-30, 03:49:04,VALID,1008.22,VALID,0,VALID,95.2533,VALID,0,VALID,22.7394,VALID,63,VALID,0,